N5CSU Weather Reports


time (UTC)temp
C
wind
direction
speed
KPH
gust
KPH
rain 1hr
cm
rain 24hr
cm
rain mn
cm
humidity
%
barometer
mb
20260510063733 23 166 0.0 0.0 0.00 0.00 0.00 82 1011.5
20260510063230 23 166 0.0 0.0 0.00 0.00 0.00 81 1011.7
20260510062727 23 153 0.0 0.0 0.00 0.00 0.00 80 1011.7
20260510062223 23 150 0.0 0.0 0.00 0.00 0.00 80 1011.0
20260510061718 24 180 0.0 0.0 0.00 0.00 0.00 79 1010.7
20260510061216 24 189 0.0 0.0 0.00 0.00 0.00 79 1010.2
20260510060712 24 185 0.0 0.0 0.00 0.00 0.00 79 1010.2
20260510060208 24 96 0.0 0.0 0.00 0.00 0.00 79 1009.9
20260510055705 23 99 0.0 0.0 0.00 0.00 0.00 79 1009.7
20260510055203 23 161 0.0 0.0 0.00 0.00 0.00 78 1009.7
20260510054658 23 164 0.0 0.0 0.00 0.00 0.00 78 1009.9
20260510054154 23 189 0.0 0.0 0.00 0.00 0.00 78 1009.8
20260510053653 24 171 0.0 0.0 0.00 0.00 0.00 78 1009.9
20260510053151 24 171 0.0 0.0 0.00 0.00 0.00 78 1009.9
20260510052646 24 174 1.6 1.6 0.00 0.00 0.00 78 1009.8
20260510052142 24 181 0.0 0.0 0.00 0.00 0.00 77 1009.7
20260510051638 24 194 0.0 0.0 0.00 0.00 0.00 77 1009.7
20260510051135 24 180 0.0 0.0 0.00 0.00 0.00 77 1009.5
20260510050632 24 182 0.0 0.0 0.00 0.00 0.00 76 1009.6
20260510050130 24 184 1.6 1.6 0.00 0.00 0.00 76 1009.4
20260510045626 25 181 0.0 0.0 0.00 0.00 0.00 75 1009.3
20260510045122 25 180 0.0 0.0 0.00 0.00 0.00 74 1009.2
20260510044619 25 186 0.0 0.0 0.00 0.00 0.00 73 1009.3
20260510044116 25 207 0.0 1.6 0.00 0.00 0.00 72 1009.1
20260510043612 24 194 0.0 0.0 0.00 0.00 0.00 71 1009.2
20260510043108 24 183 0.0 0.0 0.00 0.00 0.00 71 1009.5
20260510042607 24 175 0.0 0.0 0.00 0.00 0.00 71 1009.2
20260510042102 24 177 0.0 0.0 0.00 0.00 0.00 72 1009.3
20260510041600 24 178 0.0 0.0 0.00 0.00 0.00 70 1009.3
20260510041057 24 180 0.0 0.0 0.00 0.00 0.00 71 1009.7
20260510040554 24 181 0.0 0.0 0.00 0.00 0.00 71 1009.4
20260510040049 25 191 0.0 0.0 0.00 0.00 0.00 71 1009.4
20260510035546 24 190 0.0 0.0 0.00 0.00 0.00 71 1009.5
20260510035045 24 184 0.0 0.0 0.00 0.00 0.00 72 1009.6
20260510034544 25 184 0.0 0.0 0.00 0.00 0.00 72 1009.5
20260510034041 25 184 0.0 0.0 0.00 0.00 0.00 71 1009.4
20260510033536 25 184 0.0 0.0 0.00 0.00 0.00 71 1009.6
20260510033035 25 190 0.0 0.0 0.00 0.00 0.00 70 1009.5
20260510032531 25 190 0.0 0.0 0.00 0.00 0.00 70 1009.5
20260510032026 25 191 0.0 0.0 0.00 0.00 0.00 69 1009.7
20260510031521 25 191 0.0 0.0 0.00 0.00 0.00 68 1009.6
20260510031017 25 179 0.0 0.0 0.00 0.00 0.00 68 1009.7
20260510030513 25 183 0.0 0.0 0.00 0.00 0.00 68 1009.6
20260510030011 25 179 0.0 0.0 0.00 0.00 0.00 67 1009.8
20260510025508 25 184 0.0 0.0 0.00 0.00 0.00 67 1009.6
20260510025005 25 188 0.0 0.0 0.00 0.00 0.00 67 1009.4
20260510024502 25 185 0.0 0.0 0.00 0.00 0.00 68 1009.5
20260510023958 25 182 0.0 0.0 0.00 0.00 0.00 68 1009.3
20260510023454 25 184 0.0 0.0 0.00 0.00 0.00 68 1009.3
20260510022951 25 185 0.0 0.0 0.00 0.00 0.00 68 1009.4
20260510022450 25 179 0.0 0.0 0.00 0.00 0.00 69 1009.3
20260510021949 25 177 0.0 0.0 0.00 0.00 0.00 69 1009.1
20260510021448 25 179 0.0 0.0 0.00 0.00 0.00 70 1009.1
20260510020944 24 186 0.0 0.0 0.00 0.00 0.00 69 1009.0
20260510020438 24 172 0.0 0.0 0.00 0.00 0.00 69 1009.1
20260510015935 24 172 0.0 0.0 0.00 0.00 0.00 69 1009.2
20260510015431 25 172 0.0 0.0 0.00 0.00 0.00 69 1008.9
20260510014926 25 172 0.0 0.0 0.00 0.00 0.00 68 1008.9
20260510014424 25 172 0.0 0.0 0.00 0.00 0.00 66 1008.7
20260510013920 25 172 0.0 0.0 0.00 0.00 0.00 65 1008.7
20260510013414 25 172 0.0 0.0 0.00 0.00 0.00 65 1008.8
20260510012910 25 172 0.0 0.0 0.00 0.00 0.00 65 1008.7
20260510012406 25 172 0.0 0.0 0.00 0.00 0.00 64 1008.7
20260510011900 26 172 0.0 0.0 0.00 0.00 0.00 63 1008.4
20260510011356 26 172 0.0 0.0 0.00 0.00 0.00 63 1008.4
20260510010852 26 172 0.0 0.0 0.00 0.00 0.00 62 1008.2
20260510010349 26 172 0.0 0.0 0.00 0.00 0.00 62 1008.1
20260510005846 26 171 0.0 0.0 0.00 0.00 0.00 61 1008.2
20260510005342 27 169 0.0 0.0 0.00 0.00 0.00 60 1007.9
20260510004840 27 169 0.0 0.0 0.00 0.00 0.00 61 1008.2
20260510004337 27 169 0.0 0.0 0.00 0.00 0.00 59 1008.3
20260510003835 27 169 0.0 0.0 0.00 0.00 0.00 58 1008.2
20260510003332 28 142 0.0 0.0 0.00 0.00 0.00 57 1008.1
20260510002830 28 134 0.0 0.0 0.00 0.00 0.00 54 1008.2
20260510002328 28 160 0.0 0.0 0.00 0.00 0.00 54 1008.0
20260510001824 28 164 0.0 0.0 0.00 0.00 0.00 55 1008.2
20260510001323 28 154 0.0 0.0 0.00 0.00 0.00 54 1008.1
20260510000818 28 171 0.0 0.0 0.00 0.00 0.00 55 1008.2
20260510000318 28 166 0.0 0.0 0.00 0.00 0.00 54 1008.2
20260509235813 28 173 0.0 0.0 0.00 0.00 0.00 54 1008.0
20260509235309 29 180 0.0 0.0 0.00 0.00 0.00 54 1008.2
20260509234805 29 181 0.0 0.0 0.00 0.00 0.00 53 1008.2
20260509234302 29 177 0.0 0.0 0.00 0.00 0.00 52 1008.0
20260509233800 29 190 0.0 0.0 0.00 0.00 0.00 53 1008.0
20260509233257 29 189 0.0 0.0 0.00 0.00 0.00 53 1008.0
20260509232753 29 256 0.0 0.0 0.00 0.00 0.00 54 1008.0
20260509232251 29 148 0.0 0.0 0.00 0.00 0.00 52 1008.1
20260509231747 29 207 0.0 0.0 0.00 0.00 0.00 52 1008.1
20260509231244 29 168 0.0 0.0 0.00 0.00 0.00 54 1008.0
20260509230741 29 3 0.0 1.6 0.00 0.00 0.00 53 1008.2
20260509230238 30 181 0.0 0.0 0.00 0.00 0.00 53 1008.1
20260509225733 29 176 0.0 0.0 0.00 0.00 0.00 52 1007.9
20260509225230 30 169 0.0 0.0 0.00 0.00 0.00 54 1008.1
20260509224725 30 148 0.0 0.0 0.00 0.00 0.00 53 1008.2
20260509224223 30 187 0.0 0.0 0.00 0.00 0.00 54 1008.2
20260509223719 30 95 0.0 0.0 0.00 0.00 0.00 52 1008.0
20260509223217 30 200 0.0 0.0 0.00 0.00 0.00 53 1008.0
20260509222713 30 201 0.0 0.0 0.00 0.00 0.00 54 1008.0
20260509222209 30 181 0.0 1.6 0.00 0.00 0.00 52 1008.1
20260509221705 30 167 0.0 0.0 0.00 0.00 0.00 53 1007.8
20260509221201 30 158 0.0 0.0 0.00 0.00 0.00 56 1007.8
20260509220658 30 176 0.0 0.0 0.00 0.00 0.00 54 1008.0
20260509220154 30 185 1.6 3.2 0.00 0.00 0.00 53 1008.0
20260509215650 30 321 0.0 1.6 0.00 0.00 0.00 54 1008.0
20260509215147 30 184 0.0 1.6 0.00 0.00 0.00 55 1008.1
20260509214644 30 188 0.0 0.0 0.00 0.00 0.00 54 1008.1
20260509214141 30 84 1.6 1.6 0.00 0.00 0.00 54 1008.2
20260509213638 30 117 0.0 0.0 0.00 0.00 0.00 55 1008.3
20260509213133 30 176 0.0 0.0 0.00 0.00 0.00 56 1008.3
20260509212631 30 93 3.2 3.2 0.00 0.00 0.00 57 1008.3
20260509212128 30 186 0.0 0.0 0.00 0.00 0.00 61 1008.5
20260509211624 30 174 1.6 3.2 0.00 0.00 0.00 61 1008.7
20260509211120 30 174 0.0 0.0 0.00 0.00 0.00 58 1008.7
20260509210617 30 171 0.0 0.0 0.00 0.00 0.00 62 1008.5
20260509210114 30 185 0.0 0.0 0.00 0.00 0.00 62 1008.7
20260509205614 30 191 0.0 0.0 0.00 0.00 0.00 60 1008.7
20260509205104 30 201 0.0 0.0 0.00 0.00 0.00 61 1008.9
20260509204600 30 229 0.0 0.0 0.00 0.00 0.00 64 1009.1
20260509204057 30 185 0.0 0.0 0.00 0.00 0.00 63 1009.1
20260509203552 30 26 1.6 1.6 0.00 0.00 0.00 61 1009.3
20260509203051 30 170 0.0 0.0 0.00 0.00 0.00 64 1009.2
20260509202545 29 198 0.0 0.0 0.00 0.00 0.00 66 1009.4
20260509202040 29 176 1.6 1.6 0.00 0.00 0.00 66 1009.4
20260509201535 30 180 0.0 1.6 0.00 0.00 0.00 64 1009.3
20260509201034 29 97 1.6 3.2 0.00 0.00 0.00 62 1009.4
20260509200527 29 190 0.0 0.0 0.00 0.00 0.00 60 1009.4
20260509200024 29 184 0.0 0.0 0.00 0.00 0.00 62 1009.4
20260509195519 30 36 1.6 1.6 0.00 0.00 0.00 59 1009.5
20260509195014 30 199 3.2 3.2 0.00 0.00 0.00 60 1009.4
20260509194509 30 189 0.0 0.0 0.00 0.00 0.00 60 1009.5
20260509194006 30 197 0.0 0.0 0.00 0.00 0.00 61 1009.6
20260509193501 30 56 0.0 1.6 0.00 0.00 0.00 60 1009.6
20260509192957 30 138 0.0 1.6 0.00 0.00 0.00 61 1009.5
20260509192454 30 172 0.0 0.0 0.00 0.00 0.00 63 1009.7
20260509191949 29 182 0.0 0.0 0.00 0.00 0.00 61 1009.6
20260509191444 29 188 0.0 0.0 0.00 0.00 0.00 64 1009.7
20260509190940 29 225 0.0 0.0 0.00 0.00 0.00 64 1009.9
20260509190438 30 192 0.0 0.0 0.00 0.00 0.00 63 1009.8
20260509185936 29 184 0.0 0.0 0.00 0.00 0.00 64 1010.0
20260509185433 29 182 0.0 0.0 0.00 0.00 0.00 65 1009.9
20260509184929 28 199 0.0 0.0 0.00 0.00 0.00 65 1009.9
20260509184427 28 182 0.0 0.0 0.00 0.00 0.00 64 1010.0
20260509183923 28 212 0.0 1.6 0.00 0.00 0.00 65 1009.9
20260509183422 28 200 0.0 0.0 0.00 0.00 0.00 66 1009.9
20260509182920 28 205 0.0 0.0 0.00 0.00 0.00 65 1009.8
20260509182416 28 190 0.0 0.0 0.00 0.00 0.00 65 1009.7
20260509181914 28 199 0.0 0.0 0.00 0.00 0.00 66 1010.3
20260509181411 28 172 0.0 0.0 0.00 0.00 0.00 66 1010.2
20260509180908 28 202 0.0 0.0 0.00 0.00 0.00 67 1010.3
20260509180403 28 170 0.0 0.0 0.00 0.00 0.00 67 1010.1
20260509175901 28 169 0.0 0.0 0.00 0.00 0.00 68 1010.3
20260509175357 28 184 1.6 1.6 0.00 0.00 0.00 66 1010.5
20260509174853 28 203 0.0 0.0 0.00 0.00 0.00 69 1010.5
20260509174344 27 183 0.0 0.0 0.00 0.00 0.00 70 1010.6
20260509173840 27 204 0.0 0.0 0.00 0.00 0.00 70 1010.7
20260509173335 27 211 0.0 0.0 0.00 0.00 0.00 69 1010.5
20260509172832 27 183 0.0 0.0 0.00 0.00 0.00 70 1010.7
20260509172329 27 204 0.0 0.0 0.00 0.00 0.00 70 1010.6
20260509171825 27 188 0.0 0.0 0.00 0.00 0.00 72 1010.6
20260509171320 27 215 0.0 0.0 0.00 0.00 0.00 70 1010.7
20260509170817 27 192 0.0 0.0 0.00 0.00 0.00 70 1010.8
20260509170313 27 129 1.6 3.2 0.00 0.00 0.00 71 1010.9
20260509165813 27 179 0.0 0.0 0.00 0.00 0.00 72 1010.6
20260509165307 27 191 0.0 0.0 0.00 0.00 0.00 72 1010.8
20260509164803 27 170 0.0 0.0 0.00 0.00 0.00 71 1010.9
20260509164259 27 185 0.0 0.0 0.00 0.00 0.00 71 1011.1
20260509163756 27 183 0.0 0.0 0.00 0.00 0.00 73 1011.0
20260509163252 27 176 0.0 0.0 0.00 0.00 0.00 73 1010.8
20260509162751 27 186 0.0 0.0 0.00 0.00 0.00 76 1010.8
20260509162245 26 196 1.6 1.6 0.00 0.00 0.00 74 1010.8
20260509161742 26 184 0.0 1.6 0.00 0.00 0.00 72 1010.8
20260509161237 26 183 0.0 0.0 0.00 0.00 0.00 73 1010.9
20260509160732 26 183 0.0 0.0 0.00 0.00 0.00 75 1010.8
20260509160229 26 189 0.0 0.0 0.00 0.00 0.00 74 1010.9
20260509155724 26 189 0.0 0.0 0.00 0.00 0.00 72 1010.9
20260509155221 26 169 0.0 1.6 0.00 0.00 0.00 73 1010.8
20260509154718 26 185 1.6 1.6 0.00 0.00 0.00 75 1010.7
20260509154214 26 164 0.0 0.0 0.00 0.00 0.00 75 1010.7
20260509153711 26 141 1.6 1.6 0.00 0.00 0.00 74 1010.7
20260509153208 25 168 0.0 0.0 0.00 0.00 0.00 75 1010.7
20260509152704 25 169 0.0 0.0 0.00 0.00 0.00 77 1010.5
20260509152200 25 156 0.0 1.6 0.00 0.00 0.00 78 1010.6
20260509151657 25 169 0.0 0.0 0.00 0.00 0.00 77 1010.6
20260509151154 25 176 0.0 0.0 0.00 0.00 0.00 79 1010.5
20260509150652 25 186 0.0 0.0 0.00 0.00 0.00 78 1010.6
20260509150150 25 192 0.0 0.0 0.00 0.00 0.00 80 1010.6
20260509145646 24 175 0.0 0.0 0.00 0.00 0.00 80 1010.8
20260509145141 24 193 0.0 0.0 0.00 0.00 0.00 82 1010.8
20260509144638 24 183 0.0 0.0 0.00 0.00 0.00 81 1010.9
20260509144136 24 188 0.0 0.0 0.00 0.00 0.00 82 1010.9
20260509143633 23 82 0.0 0.0 0.00 0.00 0.00 84 1010.8
20260509143130 23 175 0.0 0.0 0.00 0.00 0.00 83 1010.8
20260509142625 23 172 0.0 0.0 0.00 0.00 0.00 83 1010.9
20260509142122 23 184 0.0 0.0 0.00 0.00 0.00 84 1010.6
20260509141618 23 189 0.0 0.0 0.00 0.00 0.00 85 1010.7
20260509141115 23 199 0.0 0.0 0.00 0.00 0.00 86 1010.6
20260509140612 22 187 0.0 0.0 0.00 0.00 0.00 87 1010.7
20260509140110 22 168 0.0 0.0 0.00 0.00 0.00 87 1010.6
20260509135607 22 185 0.0 0.0 0.00 0.00 0.00 89 1010.6
20260509135105 22 183 0.0 0.0 0.00 0.00 0.00 90 1010.9
20260509134601 22 178 0.0 0.0 0.00 0.00 0.00 90 1010.5
20260509134059 21 165 0.0 0.0 0.00 0.00 0.00 90 1010.4
20260509133555 21 184 0.0 0.0 0.00 0.00 0.00 91 1010.4
20260509133053 21 161 0.0 0.0 0.00 0.00 0.00 91 1010.5
20260509132551 21 179 0.0 0.0 0.00 0.00 0.00 92 1010.5
20260509132049 21 183 0.0 0.0 0.00 0.00 0.00 93 1010.3
20260509131545 20 184 0.0 0.0 0.00 0.00 0.00 94 1010.4
20260509131042 20 181 0.0 0.0 0.00 0.00 0.00 95 1010.4
20260509130537 20 178 0.0 0.0 0.00 0.00 0.00 95 1010.3
20260509130035 20 177 0.0 0.0 0.00 0.00 0.00 96 1010.0
20260509125531 20 169 0.0 0.0 0.00 0.00 0.00 96 1010.3
20260509125027 20 181 0.0 0.0 0.00 0.00 0.00 96 1010.5
20260509124519 20 177 0.0 0.0 0.00 0.00 0.00 97 1010.3
20260509124016 20 174 0.0 0.0 0.00 0.00 0.00 97 1010.4
20260509123514 20 176 0.0 0.0 0.00 0.00 0.00 97 1010.3
20260509123009 20 177 0.0 0.0 0.00 0.00 0.00 97 1010.0
20260509122506 20 177 0.0 0.0 0.00 0.00 0.00 97 1010.4
20260509122003 20 177 0.0 0.0 0.00 0.00 0.00 97 1010.4
20260509121459 20 177 0.0 0.0 0.00 0.00 0.00 97 1010.4
20260509120958 20 177 0.0 0.0 0.00 0.00 0.00 97 1010.3
20260509120455 20 177 0.0 0.0 0.00 0.00 0.00 97 1010.1
20260509115953 20 177 0.0 0.0 0.00 0.00 0.00 96 1010.4
20260509115450 20 178 0.0 0.0 0.00 0.00 0.00 96 1009.9
20260509114948 20 178 0.0 0.0 0.00 0.00 0.00 96 1009.8
20260509114446 20 178 0.0 0.0 0.00 0.00 0.00 96 1009.7
20260509113945 20 178 0.0 0.0 0.00 0.00 0.00 96 1009.5
20260509113442 20 178 0.0 0.0 0.00 0.00 0.00 96 1009.7
20260509112939 20 174 0.0 0.0 0.00 0.00 0.00 96 1009.7
20260509112437 20 174 0.0 0.0 0.00 0.00 0.00 96 1009.7
20260509111933 20 173 0.0 0.0 0.00 0.00 0.00 96 1009.3
20260509111431 20 173 0.0 0.0 0.00 0.00 0.00 96 1009.4
20260509110928 20 173 0.0 0.0 0.00 0.00 0.00 96 1009.3
20260509110424 20 174 0.0 0.0 0.00 0.00 0.00 96 1009.2
20260509105922 20 175 0.0 0.0 0.00 0.00 0.00 96 1009.3
20260509105420 20 175 0.0 0.0 0.00 0.00 0.00 96 1009.4
20260509104917 20 175 0.0 0.0 0.00 0.00 0.00 95 1009.2
20260509104413 20 175 0.0 0.0 0.00 0.00 0.00 95 1009.5
20260509103911 21 175 0.0 0.0 0.00 0.00 0.00 95 1009.4
20260509103408 20 175 0.0 0.0 0.00 0.00 0.00 95 1009.2
20260509102906 21 175 0.0 0.0 0.00 0.00 0.00 95 1009.3
20260509102403 21 175 0.0 0.0 0.00 0.00 0.00 95 1009.3
20260509101859 21 175 0.0 0.0 0.00 0.00 0.00 95 1009.3
20260509101355 21 175 0.0 0.0 0.00 0.00 0.00 95 1009.2
20260509100853 21 175 0.0 0.0 0.00 0.00 0.00 94 1009.1
20260509100350 21 174 0.0 0.0 0.00 0.00 0.00 94 1009.1
20260509095847 21 174 0.0 0.0 0.00 0.00 0.00 94 1008.8
20260509095345 21 172 0.0 0.0 0.00 0.00 0.00 94 1008.8
20260509094842 20 32 0.0 0.0 0.00 0.00 0.00 94 1008.5
20260509094338 21 176 0.0 0.0 0.00 0.00 0.00 94 1008.3
20260509093836 20 173 0.0 0.0 0.00 0.00 0.00 94 1008.7
20260509093333 20 112 0.0 0.0 0.00 0.00 0.00 94 1008.3
20260509092832 20 202 0.0 0.0 0.00 0.00 0.00 94 1007.5
20260509092329 20 205 0.0 0.0 0.00 0.00 0.00 94 1007.5
20260509091826 20 204 0.0 0.0 0.00 0.00 0.00 94 1007.0
20260509091324 20 196 0.0 0.0 0.00 0.00 0.00 94 1006.8
20260509090820 20 210 0.0 0.0 0.00 0.00 0.00 94 1006.7
20260509090318 20 175 0.0 0.0 0.00 0.00 0.00 94 1007.0
20260509085814 20 193 0.0 0.0 0.00 0.00 0.00 95 1006.8
20260509085313 20 178 0.0 0.0 0.00 0.00 0.00 95 1007.1
20260509084809 20 195 0.0 0.0 0.00 0.00 0.00 95 1007.5
20260509084306 20 192 0.0 0.0 0.00 0.00 0.00 95 1007.9
20260509083803 20 185 0.0 0.0 0.00 0.00 0.00 95 1008.0
20260509083300 20 190 0.0 0.0 0.00 0.00 0.00 95 1008.4
20260509082756 20 190 0.0 0.0 0.00 0.00 0.00 95 1008.8
20260509082253 20 182 0.0 0.0 0.00 0.00 0.00 95 1009.2
20260509081750 20 199 0.0 0.0 0.00 0.00 0.00 95 1009.5
20260509081248 20 185 0.0 0.0 0.00 0.00 0.00 94 1009.5
20260509080746 20 182 0.0 0.0 0.00 0.00 0.00 94 1009.7
20260509080243 20 182 0.0 0.0 0.00 0.00 0.00 94 1009.9
20260509075742 20 182 0.0 0.0 0.00 0.00 0.00 94 1009.8
20260509075238 20 182 0.0 0.0 0.00 0.00 0.00 94 1010.1
20260509074735 20 182 0.0 0.0 0.00 0.00 0.00 94 1010.0
20260509074233 20 182 0.0 0.0 0.00 0.00 0.00 94 1010.4
20260509073729 20 182 0.0 0.0 0.00 0.00 0.00 94 1010.5
20260509073225 20 182 0.0 0.0 0.00 0.00 0.00 94 1010.6
20260509072722 20 182 0.0 0.0 0.00 0.00 0.00 93 1010.6
20260509072219 20 182 0.0 0.0 0.00 0.00 0.00 94 1010.8
20260509071716 20 181 0.0 0.0 0.00 0.00 0.00 94 1011.0
20260509071213 20 192 0.0 0.0 0.00 0.00 0.00 94 1011.1
20260509070710 20 192 0.0 0.0 0.00 0.00 0.00 93 1011.1
20260509070206 20 192 0.0 0.0 0.00 0.00 0.00 93 1010.8
20260509065702 20 190 0.0 0.0 0.00 0.00 0.00 93 1010.4
20260509065158 20 185 0.0 0.0 0.00 0.00 0.00 92 1010.2
20260509064655 20 185 0.0 0.0 0.00 0.00 0.00 92 1010.2
20260509064153 20 185 0.0 0.0 0.00 0.00 0.00 92 1010.3